| time (UTC) | temp F | wind direction | speed MPH | gust MPH | rain 1hr in | rain 24hr in | rain mn in | humidity % | barometer mb |
| 20260906081540 | 61 | 40 | 0.0 | 3.0 | 0.00 | 0.00 | 0.00 | 36 | 1011.6 |
| 20260906080041 | 61 | 40 | 0.0 | 2.0 | 0.00 | 0.00 | 0.00 | 36 | 1011.6 |
| 20260906074549 | 61 | 40 | 0.0 | 1.0 | 0.00 | 0.00 | 0.00 | 36 | 1011.5 |
| 20260906073038 | 61 | 40 | 0.0 | 3.0 | 0.00 | 0.00 | 0.00 | 37 | 1011.7 |
| 20260906071538 | 61 | 40 | 0.0 | 2.0 | 0.00 | 0.00 | 0.00 | 37 | 1011.6 |
| 20260906070039 | 61 | 40 | 0.0 | 1.0 | 0.00 | 0.00 | 0.00 | 36 | 1011.5 |
| 20260906064537 | 62 | 40 | 0.0 | 1.0 | 0.00 | 0.00 | 0.00 | 36 | 1011.6 |
| 20260906063036 | 62 | 40 | 0.0 | 3.0 | 0.00 | 0.00 | 0.00 | 36 | 1011.7 |
| 20260906061546 | 62 | 40 | 1.0 | 4.0 | 0.00 | 0.00 | 0.00 | 36 | 1011.8 |
| 20260906060034 | 62 | 40 | 1.0 | 3.0 | 0.00 | 0.00 | 0.00 | 36 | 1011.8 |
| 20260906054537 | 62 | 41 | 1.0 | 4.0 | 0.00 | 0.00 | 0.00 | 36 | 1011.8 |
| 20260906053033 | 62 | 41 | 2.0 | 4.0 | 0.00 | 0.00 | 0.00 | 36 | 1011.8 |
| 20260906051533 | 61 | 42 | 0.0 | 2.0 | 0.00 | 0.00 | 0.00 | 38 | 1011.8 |
| 20260906050026 | 60 | 41 | 0.0 | 3.0 | 0.00 | 0.00 | 0.00 | 39 | 1011.9 |
| 20260906044526 | 60 | 41 | 0.0 | 2.0 | 0.00 | 0.00 | 0.00 | 40 | 1011.8 |
| 20260906043023 | 60 | 41 | 0.0 | 0.0 | 0.00 | 0.00 | 0.00 | 39 | 1011.7 |
| 20260906041533 | 60 | 41 | 0.0 | 0.0 | 0.00 | 0.00 | 0.00 | 40 | 1011.7 |
| 20260906040022 | 60 | 41 | 0.0 | 0.0 | 0.00 | 0.00 | 0.00 | 41 | 1011.4 |
| 20260906034519 | 60 | 41 | 0.0 | 0.0 | 0.00 | 0.00 | 0.00 | 41 | 1011.5 |
| 20260906033017 | 60 | 41 | 0.0 | 0.0 | 0.00 | 0.00 | 0.00 | 41 | 1011.3 |
| 20260906031520 | 60 | 41 | 0.0 | 0.0 | 0.00 | 0.00 | 0.00 | 42 | 1011.3 |
| 20260906030015 | 60 | 41 | 0.0 | 0.0 | 0.00 | 0.00 | 0.00 | 44 | 1011.3 |
| 20260906024516 | 60 | 41 | 0.0 | 0.0 | 0.00 | 0.00 | 0.00 | 44 | 1011.3 |
| 20260906023015 | 60 | 41 | 0.0 | 0.0 | 0.00 | 0.00 | 0.00 | 45 | 1011.1 |
| 20260906021513 | 60 | 41 | 0.0 | 0.0 | 0.00 | 0.00 | 0.00 | 46 | 1011.1 |
| 20260906020013 | 61 | 41 | 0.0 | 0.0 | 0.00 | 0.00 | 0.00 | 47 | 1011.0 |
| 20260906014525 | 61 | 41 | 0.0 | 1.0 | 0.00 | 0.00 | 0.00 | 49 | 1010.9 |
| 20260906013012 | 61 | 41 | 0.0 | 1.0 | 0.00 | 0.00 | 0.00 | 50 | 1010.9 |
| 20260906011510 | 62 | 42 | 0.0 | 1.0 | 0.00 | 0.00 | 0.00 | 52 | 1010.8 |
| 20260906010032 | 62 | 42 | 0.0 | 2.0 | 0.00 | 0.00 | 0.00 | 53 | 1010.8 |
| 20260906004509 | 63 | 41 | 0.0 | 2.0 | 0.00 | 0.00 | 0.00 | 55 | 1010.7 |
| 20260906003007 | 63 | 41 | 0.0 | 2.0 | 0.00 | 0.00 | 0.00 | 57 | 1010.6 |
| 20260906001506 | 64 | 41 | 0.0 | 2.0 | 0.00 | 0.00 | 0.00 | 61 | 1010.6 |
| 20260906000006 | 65 | 41 | 1.0 | 6.0 | 0.00 | 0.00 | 0.00 | 64 | 1010.5 |
| 20260905234506 | 66 | 50 | 1.0 | 5.0 | 0.00 | 0.00 | 0.00 | 66 | 1010.5 |
| 20260905233005 | 67 | 50 | 1.0 | 4.0 | 0.00 | 0.00 | 0.00 | 68 | 1010.5 |
| 20260905231505 | 68 | 50 | 1.0 | 5.0 | 0.00 | 0.00 | 0.00 | 69 | 1010.5 |
| 20260905230005 | 68 | 45 | 0.0 | 4.0 | 0.00 | 0.00 | 0.00 | 69 | 1010.4 |
| 20260905224504 | 68 | 44 | 1.0 | 5.0 | 0.00 | 0.00 | 0.00 | 69 | 1010.4 |
| 20260905223013 | 69 | 43 | 2.0 | 10.0 | 0.00 | 0.00 | 0.00 | 68 | 1010.4 |
| 20260905221502 | 69 | 23 | 2.0 | 6.0 | 0.00 | 0.00 | 0.00 | 68 | 1010.3 |
| 20260905220002 | 70 | 5 | 3.0 | 9.0 | 0.00 | 0.00 | 0.00 | 68 | 1010.2 |
| 20260905214502 | 70 | 23 | 3.0 | 8.0 | 0.00 | 0.00 | 0.00 | 68 | 1009.9 |
| 20260905213102 | 70 | 360 | 5.0 | 10.0 | 0.00 | 0.00 | 0.00 | 68 | 1009.8 |
| 20260905211600 | 70 | 358 | 3.0 | 10.0 | 0.00 | 0.00 | 0.00 | 68 | 1009.7 |
| 20260905210103 | 70 | 62 | 2.0 | 10.0 | 0.00 | 0.00 | 0.00 | 68 | 1009.7 |
| 20260905204607 | 69 | 11 | 3.0 | 10.0 | 0.00 | 0.00 | 0.00 | 68 | 1009.6 |
| 20260905203102 | 70 | 19 | 2.0 | 9.0 | 0.00 | 0.00 | 0.00 | 68 | 1009.6 |
| 20260905201606 | 70 | 5 | 4.0 | 11.0 | 0.00 | 0.00 | 0.00 | 67 | 1009.7 |
| 20260905200058 | 69 | 5 | 5.0 | 11.0 | 0.00 | 0.00 | 0.00 | 68 | 1009.8 |
| 20260905194556 | 70 | 23 | 2.0 | 6.0 | 0.00 | 0.00 | 0.00 | 68 | 1009.7 |
| 20260905193054 | 71 | 28 | 2.0 | 6.0 | 0.00 | 0.00 | 0.00 | 67 | 1009.7 |
| 20260905191554 | 72 | 13 | 5.0 | 12.0 | 0.00 | 0.00 | 0.00 | 66 | 1009.8 |
| 20260905190052 | 71 | 349 | 3.0 | 11.0 | 0.00 | 0.00 | 0.00 | 67 | 1009.8 |
| 20260905184550 | 70 | 66 | 4.0 | 11.0 | 0.00 | 0.00 | 0.00 | 67 | 1009.7 |
| 20260905183107 | 70 | 339 | 5.0 | 10.0 | 0.00 | 0.00 | 0.00 | 67 | 1009.8 |
| 20260905181549 | 70 | 12 | 3.0 | 7.0 | 0.00 | 0.00 | 0.00 | 67 | 1009.7 |
| 20260905180053 | 70 | 21 | 2.0 | 9.0 | 0.00 | 0.00 | 0.00 | 67 | 1009.8 |
| 20260905174548 | 71 | 339 | 3.0 | 14.0 | 0.00 | 0.00 | 0.00 | 66 | 1009.7 |
| 20260905173042 | 70 | 344 | 7.0 | 11.0 | 0.00 | 0.00 | 0.00 | 67 | 1009.7 |
| 20260905171543 | 70 | 354 | 2.0 | 11.0 | 0.00 | 0.00 | 0.00 | 67 | 1009.8 |
| 20260905170044 | 69 | 349 | 4.0 | 10.0 | 0.00 | 0.00 | 0.00 | 66 | 1009.8 |
| 20260905164537 | 68 | 41 | 1.0 | 8.0 | 0.00 | 0.00 | 0.00 | 66 | 1009.8 |
| 20260905163036 | 68 | 356 | 2.0 | 10.0 | 0.00 | 0.00 | 0.00 | 65 | 1010.0 |
| 20260905161535 | 68 | 344 | 5.0 | 12.0 | 0.00 | 0.00 | 0.00 | 62 | 1010.0 |
| 20260905160034 | 68 | 19 | 2.0 | 11.0 | 0.00 | 0.00 | 0.00 | 63 | 1010.1 |
| 20260905154533 | 68 | 3 | 2.0 | 6.0 | 0.00 | 0.00 | 0.00 | 62 | 1010.2 |
| 20260905153031 | 68 | 339 | 8.0 | 15.0 | 0.00 | 0.00 | 0.00 | 56 | 1010.4 |
| 20260905151534 | 67 | 11 | 1.0 | 14.0 | 0.00 | 0.00 | 0.00 | 54 | 1010.2 |
| 20260905150025 | 66 | 352 | 1.0 | 9.0 | 0.00 | 0.00 | 0.00 | 47 | 1010.1 |
| 20260905144530 | 66 | 350 | 3.0 | 10.0 | 0.00 | 0.00 | 0.00 | 44 | 1010.2 |
| 20260905143021 | 66 | 339 | 3.0 | 10.0 | 0.00 | 0.00 | 0.00 | 36 | 1010.1 |
| 20260905141518 | 65 | 1 | 5.0 | 11.0 | 0.00 | 0.00 | 0.00 | 34 | 1010.3 |
| 20260905140016 | 64 | 11 | 5.0 | 11.0 | 0.00 | 0.00 | 0.00 | 34 | 1010.2 |
| 20260905134515 | 64 | 325 | 5.0 | 10.0 | 0.00 | 0.00 | 0.00 | 35 | 1010.2 |
| 20260905133011 | 63 | 329 | 4.0 | 8.0 | 0.00 | 0.00 | 0.00 | 35 | 1010.4 |
| 20260905131514 | 63 | 329 | 2.0 | 6.0 | 0.00 | 0.00 | 0.00 | 35 | 1010.2 |
| 20260905130011 | 63 | 339 | 2.0 | 6.0 | 0.00 | 0.00 | 0.00 | 35 | 1010.2 |
| 20260905124515 | 62 | 339 | 3.0 | 6.0 | 0.00 | 0.00 | 0.00 | 36 | 1010.2 |
| 20260905123009 | 62 | 339 | 1.0 | 5.0 | 0.00 | 0.00 | 0.00 | 36 | 1010.5 |
| 20260905121507 | 61 | 339 | 3.0 | 5.0 | 0.00 | 0.00 | 0.00 | 36 | 1010.4 |
| 20260905120006 | 61 | 339 | 2.0 | 6.0 | 0.00 | 0.00 | 0.00 | 36 | 1010.3 |
| 20260905114506 | 60 | 329 | 1.0 | 5.0 | 0.00 | 0.00 | 0.00 | 37 | 1010.0 |
| 20260905113001 | 60 | 329 | 2.0 | 4.0 | 0.00 | 0.00 | 0.00 | 37 | 1009.8 |
| 20260905111502 | 60 | 324 | 1.0 | 4.0 | 0.00 | 0.00 | 0.00 | 37 | 1009.6 |
| 20260905110104 | 60 | 330 | 2.0 | 5.0 | 0.00 | 0.00 | 0.00 | 37 | 1009.6 |
| 20260905104612 | 59 | 329 | 2.0 | 4.0 | 0.00 | 0.00 | 0.00 | 37 | 1009.6 |
| 20260905103100 | 59 | 329 | 1.0 | 4.0 | 0.00 | 0.00 | 0.00 | 38 | 1009.4 |
| 20260905101603 | 58 | 328 | 0.0 | 3.0 | 0.00 | 0.00 | 0.00 | 39 | 1009.4 |
| 20260905100100 | 58 | 330 | 1.0 | 2.0 | 0.00 | 0.00 | 0.00 | 39 | 1009.2 |
| 20260905094555 | 59 | 330 | 0.0 | 2.0 | 0.00 | 0.00 | 0.00 | 40 | 1009.0 |
| 20260905093054 | 59 | 330 | 0.0 | 2.0 | 0.00 | 0.00 | 0.00 | 40 | 1009.0 |
| 20260905091553 | 59 | 330 | 0.0 | 0.0 | 0.00 | 0.00 | 0.00 | 40 | 1008.9 |
| 20260905090114 | 59 | 330 | 0.0 | 1.0 | 0.00 | 0.00 | 0.00 | 40 | 1008.7 |
| 20260905084550 | 60 | 330 | 0.0 | 0.0 | 0.00 | 0.00 | 0.00 | 40 | 1008.8 |
| 20260905083047 | 60 | 330 | 0.0 | 1.0 | 0.00 | 0.00 | 0.00 | 40 | 1008.8 |